Weather History for Corinth, MS

Change the Weather History Date:

Saturday, April 19, 2014

  Actual Average Record
Temperature  
Mean Temperature 62 °F -  
Max Temperature 77 °F 76 °F 88 °F (1971)
Min Temperature 46 °F 51 °F 31 °F (1983)
Degree Days  
Heating Degree Days 4    
Growing Degree Days 12 (Base 50)    
Moisture  
Dew Point 44 °F    
Average Humidity 60    
Maximum Humidity 100    
Minimum Humidity 21    
Precipitation  
Precipitation 0.00 in - - ()
Sea Level Pressure  
Sea Level Pressure 30.16 in    
Wind  
Wind Speed 3 mph (NNE)    
Max Wind Speed 17 mph    
Max Gust Speed 26 mph    
Visibility 8 miles    
Events Thunderstorm    
Averages and records for this station are not official NWS values.
T = Trace of Precipitation, MM = Missing Value Source: NWS Daily Summary

Daily Weather History Graph

Daily Weather History Graph

Search for Another Location

Airport:

Trip Planner

Search our weather history database for the weather conditions in past years. The results will help you decide how hot, cold, wet, or windy it might be!

Date:

Astronomy

Apr. 19, 2014 Rise Set
Actual Time 6:17 AM CDT 7:30 PM CDT
Civil Twilight 5:51 AM CDT 7:56 PM CDT
Nautical Twilight 5:20 AM CDT 8:27 PM CDT
Astronomical Twilight 4:47 AM CDT 9:00 PM CDT
Moon No Moon Rise 9:41 AM CDT
Length of Visible Light 14h 05m
Length of Day
13h 12m
Waning Gibbous, 78% of the Moon is Illuminated
Apr 19
Waning Gibbous
Apr 22
Last Quarter
Apr 29
New
May 6
First Quarter
May 14
Full

Hourly Weather History & Observations

Time (CDT) Temp. Dew Point Humidity Pressure Visibility Wind Dir Wind Speed Gust Speed Precip Events Conditions
12:10 AM 53.6 °F 50.0 °F 88% 30.18 in 9.0 mi Calm Calm - N/A   Clear
12:30 AM 51.8 °F 50.0 °F 94% 30.19 in 6.0 mi Calm Calm - N/A   Clear
12:50 AM 51.8 °F 50.0 °F 94% 30.18 in 6.0 mi Calm Calm - N/A   Clear
1:10 AM 50.0 °F 48.2 °F 94% 30.18 in 4.0 mi Calm Calm - N/A   Clear
1:30 AM 50.0 °F 48.2 °F 94% 30.18 in 5.0 mi WNW 3.5 mph - N/A   Clear
1:50 AM 50.0 °F 48.2 °F 94% 30.18 in 5.0 mi Calm Calm - N/A   Clear
2:10 AM 50.0 °F 48.2 °F 94% 30.18 in 5.0 mi Calm Calm - N/A   Clear
2:30 AM 50.0 °F 48.2 °F 94% 30.17 in 5.0 mi Calm Calm - N/A   Clear
2:50 AM 50.0 °F 48.2 °F 94% 30.17 in 5.0 mi Calm Calm - N/A   Clear
3:10 AM 48.2 °F 48.2 °F 100% 30.17 in 6.0 mi WNW 4.6 mph - N/A   Clear
3:30 AM 48.2 °F 46.4 °F 93% 30.17 in 8.0 mi WNW 3.5 mph - N/A   Clear
3:50 AM 48.2 °F 46.4 °F 93% 30.17 in 5.0 mi WNW 3.5 mph - N/A   Clear
4:10 AM 50.0 °F 48.2 °F 94% 30.17 in 8.0 mi Calm Calm - N/A   Clear
4:30 AM 48.2 °F 48.2 °F 100% 30.17 in 7.0 mi Calm Calm - N/A   Clear
4:50 AM 48.2 °F 46.4 °F 93% 30.17 in 4.0 mi Calm Calm - N/A   Clear
5:10 AM 48.2 °F 48.2 °F 100% 30.17 in 4.0 mi Calm Calm - N/A   Clear
5:30 AM 48.2 °F 46.4 °F 93% 30.17 in 2.5 mi Calm Calm - N/A   Clear
5:50 AM 48.2 °F 46.4 °F 93% 30.17 in 4.0 mi WNW 3.5 mph - N/A   Clear
6:10 AM 48.2 °F 46.4 °F 93% 30.17 in 5.0 mi Calm Calm - N/A   Clear
6:30 AM 46.4 °F 44.6 °F 93% 30.18 in 5.0 mi Calm Calm - N/A   Clear
6:50 AM 46.4 °F 46.4 °F 100% 30.18 in 5.0 mi Calm Calm - N/A   Clear
7:10 AM 48.2 °F 46.4 °F 93% 30.19 in 5.0 mi Calm Calm - N/A   Clear
7:30 AM 51.8 °F 50.0 °F 94% 30.20 in 8.0 mi Calm Calm - N/A   Clear
7:50 AM 53.6 °F 50.0 °F 88% 30.20 in 9.0 mi Calm Calm - N/A   Clear
8:10 AM 55.4 °F 51.8 °F 88% 30.21 in 10.0 mi Calm Calm - N/A   Clear
8:30 AM 57.2 °F 51.8 °F 82% 30.21 in 10.0 mi Calm Calm - N/A   Clear
8:50 AM 60.8 °F 53.6 °F 77% 30.20 in 10.0 mi ENE 3.5 mph - N/A   Clear
9:10 AM 64.4 °F 50.0 °F 59% 30.21 in 10.0 mi NE 6.9 mph - N/A   Clear
9:30 AM 66.2 °F 48.2 °F 52% 30.21 in 10.0 mi NNE 10.4 mph - N/A   Clear
9:50 AM 68.0 °F 46.4 °F 46% 30.21 in 10.0 mi ENE 9.2 mph - N/A   Clear
10:10 AM 69.8 °F 44.6 °F 40% 30.20 in 10.0 mi NE 13.8 mph 19.6 mph N/A   Clear
10:30 AM 69.8 °F 41.0 °F 35% 30.20 in 10.0 mi ENE 13.8 mph 21.9 mph N/A   Clear
10:50 AM 71.6 °F 37.4 °F 29% 30.20 in 10.0 mi NE 17.3 mph 26.5 mph N/A   Clear
11:10 AM 71.6 °F 37.4 °F 29% 30.20 in 10.0 mi NNE 13.8 mph - N/A   Clear
11:30 AM 71.6 °F 39.2 °F 31% 30.19 in 10.0 mi NNE 15.0 mph 25.3 mph N/A   Clear
12:10 PM 73.4 °F 39.2 °F 29% 30.19 in 10.0 mi NNE 15.0 mph 19.6 mph N/A   Clear
12:30 PM 73.4 °F 39.2 °F 29% 30.18 in 10.0 mi NNE 11.5 mph 17.3 mph N/A   Clear
12:50 PM 73.4 °F 35.6 °F 25% 30.17 in 10.0 mi NE 4.6 mph 17.3 mph N/A   Clear
1:10 PM 75.2 °F 37.4 °F 25% 30.16 in 10.0 mi North 11.5 mph 16.1 mph N/A   Clear
1:30 PM 75.2 °F 37.4 °F 25% 30.16 in 10.0 mi NNE 15.0 mph 18.4 mph N/A   Clear
1:50 PM 75.2 °F 35.6 °F 24% 30.16 in 10.0 mi NNE 5.8 mph 17.3 mph N/A   Clear
2:10 PM 75.2 °F 37.4 °F 25% 30.16 in 10.0 mi NNE 10.4 mph 18.4 mph N/A   Clear
2:30 PM 75.2 °F 35.6 °F 24% 30.15 in 10.0 mi NNW 5.8 mph - N/A   Clear
2:50 PM 77.0 °F 39.2 °F 26% 30.14 in 10.0 mi NNE 13.8 mph - N/A   Clear
3:10 PM 75.2 °F 35.6 °F 24% 30.13 in 10.0 mi NW 5.8 mph - N/A   Clear
3:30 PM 77.0 °F 37.4 °F 24% 30.13 in 10.0 mi NNE 3.5 mph - N/A   Clear
3:50 PM 77.0 °F 35.6 °F 22% 30.12 in 10.0 mi NNE 3.5 mph - N/A   Clear
4:10 PM 77.0 °F 35.6 °F 22% 30.11 in 10.0 mi ENE 4.6 mph - N/A   Clear
4:30 PM 77.0 °F 35.6 °F 22% 30.11 in 10.0 mi East 5.8 mph - N/A   Clear
4:50 PM 77.0 °F 35.6 °F 22% 30.11 in 10.0 mi NE 11.5 mph - N/A Thunderstorm Clear
5:10 PM 77.0 °F 33.8 °F 21% 30.11 in 10.0 mi North 3.5 mph - N/A   Clear
5:30 PM 77.0 °F 35.6 °F 22% 30.11 in 10.0 mi NNE 6.9 mph - N/A   Clear
5:50 PM 77.0 °F 35.6 °F 22% 30.11 in 10.0 mi NNE 5.8 mph - N/A   Clear
6:10 PM 75.2 °F 37.4 °F 25% 30.11 in 10.0 mi NNE 6.9 mph - N/A   Clear
6:30 PM 75.2 °F 37.4 °F 25% 30.11 in 10.0 mi NNE 5.8 mph - N/A   Clear
6:50 PM 73.4 °F 35.6 °F 25% 30.11 in 10.0 mi North 4.6 mph - N/A   Clear
7:10 PM 73.4 °F 39.2 °F 29% 30.12 in 10.0 mi North 3.5 mph - N/A   Clear
7:30 PM 68.0 °F 41.0 °F 37% 30.12 in 10.0 mi NNW 3.5 mph - N/A   Clear
7:50 PM 66.2 °F 44.6 °F 46% 30.13 in 10.0 mi NW 3.5 mph - N/A   Clear
8:10 PM 62.6 °F 48.2 °F 59% 30.13 in 10.0 mi WNW 3.5 mph - N/A   Clear
8:30 PM 62.6 °F 46.4 °F 55% 30.14 in 10.0 mi Calm Calm - N/A   Clear
8:50 PM 59.0 °F 50.0 °F 72% 30.14 in 10.0 mi Calm Calm - N/A   Clear
9:10 PM 59.0 °F 48.2 °F 67% 30.15 in 10.0 mi Calm Calm - N/A   Clear
9:30 PM 59.0 °F 46.4 °F 63% 30.15 in 10.0 mi Calm Calm - N/A   Clear
9:50 PM 59.0 °F 46.4 °F 63% 30.15 in 10.0 mi Calm Calm - N/A   Clear
10:10 PM 59.0 °F 44.6 °F 59% 30.15 in 10.0 mi Calm Calm - N/A   Clear
10:30 PM 55.4 °F 46.4 °F 72% 30.15 in 9.0 mi SE 3.5 mph - N/A   Clear
10:50 PM 55.4 °F 46.4 °F 72% 30.15 in 10.0 mi Calm Calm - N/A   Clear
11:10 PM 53.6 °F 46.4 °F 77% 30.16 in 10.0 mi Calm Calm - N/A   Clear
11:30 PM 51.8 °F 46.4 °F 82% 30.16 in 10.0 mi Calm Calm - N/A   Clear
11:50 PM 51.8 °F 46.4 °F 82% 30.16 in 10.0 mi Calm Calm - N/A   Clear